#timestamp,LO_Frequency,Hit,StdDev 
1558112415.8,286046997.0,N
1558112435.6,286046996.6,N
1558112455.5,286046999.1,N
1558112475.3,286046998.5,N
1558112495.1,286046998.5,N
1558112515.9,286046999.8,N
1558112535.7,286047002.2,N
1558112555.5,286047006.0,Y
1558112575.4,286047004.0,P
1558112595.2,286047001.6,N
1558112615.1,286046999.8,N
1558112616.0,286046999.8,N
1558112635.8,286047000.5,N
1558112655.6,286046998.5,N
1558112675.5,286047000.4,N
1558112695.3,286047001.9,N
1558112715.1,286046999.7,N
1558112735.9,286046999.9,N
1558112755.7,286047000.1,N
1558112775.6,286047000.4,N
1558112795.4,286047000.9,N
1558112815.2,286047000.9,N
1558112835.1,286047000.4,N
1558112836.0,286047000.4,N
1558112855.8,286046998.1,N
1558112875.6,286047000.2,N
1558112895.5,286046999.9,N
1558112915.3,286047000.3,N
1558112935.2,286047002.6,N
1558112955.9,286047000.1,N
1558112975.7,286047002.4,N
1558112995.6,286047004.0,Y
1558113015.4,286047001.7,P
1558113035.2,286047004.1,P
1558113055.1,286047004.1,N
1558113056.0,286047004.1,N
1558113075.8,286047003.9,N
1558113095.7,286047001.8,N
1558113115.5,286047002.4,N
1558113135.3,286047002.2,N
1558113155.2,286047004.3,Y
1558113175.0,286047000.7,P
1558113175.9,286047000.7,N
1558113195.8,286046998.7,N
1558113215.6,286047000.6,N
1558113235.4,286047000.5,N
1558113255.3,286046998.5,N
1558113275.1,286046996.8,N
1558113295.8,286046997.9,N
1558113315.7,286046997.0,N
1558113335.5,286046997.0,N
1558113355.4,286046998.9,N
1558113375.2,286046998.4,N
1558113395.0,286047000.4,N
1558113395.9,286047000.4,N
1558113415.8,286047001.2,N
1558113435.6,286046998.4,N
1558113455.4,286046999.2,N
1558113475.3,286046997.1,N
1558113495.1,286046999.3,N
1558113515.9,286046994.9,Y
1558113535.7,286046996.5,P
1558113555.5,286046999.6,N
1558113575.4,286046997.0,N
1558113595.2,286046997.1,N
1558113615.0,286046999.4,N
1558113615.9,286046999.4,N
1558113635.8,286046996.5,N
1558113655.6,286046998.9,N
1558113675.5,286046998.2,N
1558113695.3,286047000.8,N
1558113715.1,286046999.2,N
1558113735.9,286046999.3,N
1558113755.7,286046999.1,N
1558113775.5,286046996.9,N
1558113795.4,286046995.4,Y
1558113815.2,286046996.9,P
1558113835.1,286046999.5,N
1558113836.0,286046999.5,N
1558113855.8,286046998.3,N
1558113875.6,286046997.2,N
1558113895.5,286046999.2,N
1558113915.3,286046998.0,N
1558113935.2,286046995.0,Y
1558113955.9,286046997.7,P
1558113975.7,286046997.3,P
1558113995.6,286046997.1,P
1558114015.4,286046996.9,Y
1558114035.2,286047001.0,P
1558114055.1,286047000.5,N
1558114056.0,286047000.5,N
1558114075.8,286046998.2,N
1558114095.7,286047001.1,N
1558114115.5,286047000.9,N
1558114135.3,286046998.9,N
1558114155.2,286046999.4,N
1558114175.0,286046999.1,N
1558114175.9,286046999.1,N
1558114195.7,286046998.9,N
1558114215.6,286046998.7,N
1558114235.4,286047001.0,N
1558114255.3,286047000.8,N
1558114275.1,286047000.5,N
1558114295.8,286047000.4,N
1558114315.7,286046999.2,N
1558114335.5,286046998.4,N
1558114355.3,286046998.4,N
1558114375.2,286046999.1,N
1558114395.0,286046998.8,N
1558114395.9,286046998.8,N
1558114415.8,286047000.4,N
1558114435.6,286047002.3,N
1558114455.4,286047004.4,Y
1558114475.3,286047002.0,P
1558114495.1,286047001.7,N
1558114515.9,286047002.1,N
1558114535.7,286047002.0,N
1558114555.5,286047001.4,N
1558114575.4,286047001.8,N
1558114595.2,286047001.8,N
1558114615.0,286047002.7,Y
1558114615.9,286047002.7,P
1558114635.8,286047000.5,N
1558114655.6,286046998.2,N
1558114675.5,286047000.8,N
1558114695.3,286046998.8,N
1558114715.1,286047001.2,N
1558114735.9,286046998.1,N
1558114755.7,286047000.4,N
1558114775.5,286047001.7,N
1558114795.4,286047004.4,N
1558114815.2,286047001.4,N
1558114835.1,286047002.2,N
1558114836.0,286047002.2,N
1558114855.8,286047002.4,N
1558114875.6,286047001.6,N
1558114895.5,286047001.4,N
1558114915.3,286047001.5,N
1558114965.2,286047003.2,E
1558114975.1,286047001.6,N
1558114976.0,286047001.6,P
1558114995.8,286047000.7,P
1558115015.7,286046998.7,Y
1558115035.5,286046996.8,P
1558115055.3,286046997.0,N
1558115075.2,286046997.1,N
1558115095.0,286046997.2,N
1558115095.9,286046997.2,N
1558115115.8,286046997.3,N
1558115135.6,286046997.7,N
1558115155.4,286046995.3,Y
1558115175.3,286047000.8,P
1558115195.1,286046998.1,N
1558115215.9,286046998.4,N
1558115235.7,286046998.5,N
1558115255.5,286046998.8,N
1558115275.4,286046998.6,N
1558115295.2,286046999.5,N
1558115315.0,286046998.8,N
1558115315.9,286046998.8,N
1558115335.8,286046998.5,N
1558115355.6,286047000.8,N
1558115375.4,286047001.2,N
1558115395.3,286046998.1,N
1558115415.1,286047001.9,N
1558115435.9,286047001.4,N
1558115455.7,286047002.5,N
1558115475.5,286047000.7,N
1558115495.4,286047000.2,N
1558115515.2,286047002.7,N
1558115535.0,286047001.9,N
1558115535.9,286047001.9,N
1558115555.8,286047001.4,N
1558115575.6,286047000.2,N
1558115595.5,286047000.7,N
1558115615.3,286047000.5,N
1558115635.1,286047001.1,N
1558115655.9,286046998.5,N
1558115675.7,286047001.1,N
1558115695.5,286046999.3,N
1558115715.4,286046999.0,N
1558115735.2,286046996.6,N
1558115755.1,286046996.5,N
1558115756.0,286046996.5,N
1558115775.8,286046997.3,N
1558115795.6,286046997.4,N
1558115815.5,286046998.0,N
1558115835.3,286046997.7,N
1558115855.1,286046997.5,N
1558115875.9,286046997.2,N
1558115895.7,286046997.1,N
1558115915.6,286047001.2,N
1558115935.4,286046998.3,N
1558115955.2,286046999.4,N
1558115975.1,286046999.0,N
1558115976.0,286046999.0,N
1558115995.8,286046996.5,N
